Change the Weather History Date:

Wednesday, September 25, 2013

  Actual Average (KSZT) Record (KSZT)
Temperature  
Mean Temperature 45 °F -  
Max Temperature 46 °F 67 °F 85 °F (1990)
Min Temperature 44 °F 39 °F 20 °F (1926)
Degree Days  
Heating Degree Days 20    
Moisture  
Dew Point -    
Average Humidity    
Maximum Humidity    
Minimum Humidity    
Precipitation  
Precipitation 0.45 in - - ()
Sea Level Pressure  
Sea Level Pressure 29.84 in    
Wind  
Wind Speed 5 mph (North)    
Max Wind Speed 16 mph    
Max Gust Speed 21 mph    
Visibility 7 miles    
Events Fog , Rain    
Averages and records for this station are not official NWS values.
T = Trace of Precipitation, MM = Missing Value Source: NWS Daily Summary

Daily Weather History Graph

Daily Weather History Graph

Search for Another Location

Airport or City:

Trip Planner

Search our weather history database for the weather conditions in past years. The results will help you decide how hot, cold, wet, or windy it might be!

Date:

Astronomy

Sep. 25, 2013 Rise Set
Actual Time 6:36 AM PDT 6:35 PM PDT
Civil Twilight 6:05 AM PDT 7:07 PM PDT
Nautical Twilight 5:28 AM PDT 7:44 PM PDT
Astronomical Twilight 4:50 AM PDT 8:21 PM PDT
Moon 10:20 PM PDT (9/25) 1:11 PM PDT (9/25)
Length of Visible Light 13h 02m
Length of Day
11h 59m
Waning Gibbous, 63% of the Moon is Illuminated
Sep 25
Waning Gibbous
Sep 26
Last Quarter
Oct 4
New
Oct 11
First Quarter
Oct 18
Full

Hourly Weather History & Observations

Time (PDT) Temp. Windchill Dew Point Humidity Pressure Visibility Wind Dir Wind Speed Gust Speed Precip Events Conditions
12:10 AM 44.6 °F - - N/A% 29.80 in 1.2 mi Calm Calm - N/A   Overcast
12:30 AM 44.6 °F - - N/A% 29.80 in 0.2 mi Calm Calm - N/A Fog Fog
12:50 AM 44.6 °F - - N/A% 29.80 in 0.2 mi Calm Calm - N/A Fog Fog
1:10 AM 44.6 °F - - N/A% 29.80 in 6.0 mi Calm Calm - N/A   Haze
1:30 AM 44.6 °F - - N/A% 29.80 in 0.8 mi Calm Calm - N/A   Overcast
1:50 AM 44.6 °F - - N/A% 29.80 in 0.2 mi Calm Calm - N/A Fog Fog
2:10 AM 44.6 °F - - N/A% 29.80 in 0.2 mi Calm Calm - N/A Fog Fog
2:30 AM 44.6 °F - - N/A% 29.80 in 0.5 mi Calm Calm - N/A Rain Light Rain
2:50 AM 44.6 °F - - N/A% 29.80 in 2.5 mi Calm Calm - 0.02 in Rain Light Rain
3:10 AM 44.6 °F - - N/A% 29.80 in 4.0 mi Calm Calm - 0.01 in Rain Light Rain
3:30 AM 44.6 °F - - N/A% 29.80 in 3.0 mi Calm Calm - 0.05 in Rain Light Rain
3:50 AM 44.6 °F - - N/A% 29.80 in 3.0 mi Calm Calm - 0.10 in Rain Light Rain
4:10 AM 44.6 °F - - N/A% 29.79 in 5.0 mi Calm Calm - N/A Rain Light Rain
4:30 AM 44.6 °F - - N/A% 29.79 in 0.8 mi Calm Calm - 0.01 in Rain Light Rain
4:50 AM 44.6 °F - - N/A% 29.79 in 0.5 mi Calm Calm - 0.05 in Rain Rain
5:10 AM 44.6 °F - - N/A% 29.79 in 2.0 mi Calm Calm - 0.02 in Rain Light Rain
5:30 AM 44.6 °F - - N/A% 29.79 in 3.0 mi Calm Calm - 0.06 in Rain Light Rain
5:50 AM 44.6 °F - - N/A% 29.79 in 2.5 mi Calm Calm - 0.07 in Rain Light Rain
6:10 AM 44.6 °F - - N/A% 29.79 in 1.2 mi Calm Calm - N/A Rain Light Rain
6:30 AM 44.6 °F 42.2 °F - N/A% 29.79 in 4.0 mi NNW 4.6 mph - 0.01 in Rain Light Rain
6:50 AM 46.4 °F 42.4 °F - N/A% 29.79 in 8.0 mi North 8.1 mph - 0.02 in Rain Light Rain
7:10 AM 46.4 °F 42.9 °F - N/A% 29.79 in 7.0 mi NNW 6.9 mph - 0.01 in Rain Light Rain
7:30 AM 46.4 °F 41.5 °F - N/A% 29.79 in 10.0 mi North 10.4 mph - 0.01 in Rain Light Rain
7:50 AM 46.4 °F 41.5 °F - N/A% 29.79 in 8.0 mi North 10.4 mph - 0.01 in Rain Light Rain
8:10 AM 46.4 °F 42.9 °F - N/A% 29.80 in 6.0 mi North 6.9 mph - 0.01 in Rain Light Rain
8:30 AM 46.4 °F 41.5 °F - N/A% 29.80 in 5.0 mi North 10.4 mph - 0.01 in Rain Light Rain
8:50 AM 46.4 °F 41.9 °F - N/A% 29.80 in 6.0 mi North 9.2 mph - 0.03 in Rain Light Rain
9:10 AM 46.4 °F 41.9 °F - N/A% 29.81 in 7.0 mi North 9.2 mph - 0.01 in Rain Light Rain
9:30 AM 46.4 °F 41.9 °F - N/A% 29.81 in 7.0 mi North 9.2 mph 16.1 mph 0.02 in Rain Light Rain
9:50 AM 46.4 °F 41.1 °F - N/A% 29.81 in 5.0 mi NNW 11.5 mph - 0.02 in Rain Light Rain
10:10 AM 46.4 °F 41.1 °F - N/A% 29.82 in 5.0 mi North 11.5 mph 19.6 mph 0.01 in Rain Light Rain
10:30 AM 46.4 °F 41.1 °F - N/A% 29.82 in 8.0 mi NNW 11.5 mph 17.3 mph 0.02 in Rain Light Rain
10:50 AM 46.4 °F 40.1 °F - N/A% 29.82 in 5.0 mi North 15.0 mph 20.7 mph 0.02 in Rain Light Rain
11:10 AM 46.4 °F 40.7 °F - N/A% 29.83 in 6.0 mi North 12.7 mph 20.7 mph 0.01 in Rain Light Rain
11:30 AM 46.4 °F 40.7 °F - N/A% 29.83 in 4.0 mi NNW 12.7 mph 18.4 mph 0.03 in Rain Rain
11:50 AM 46.4 °F 41.5 °F - N/A% 29.83 in 5.0 mi North 10.4 mph 19.6 mph 0.05 in Rain Rain
12:10 PM 46.4 °F 40.7 °F - N/A% 29.84 in 5.0 mi North 12.7 mph 18.4 mph N/A Rain Light Rain
12:30 PM 46.4 °F 41.5 °F - N/A% 29.84 in 6.0 mi North 10.4 mph 16.1 mph 0.02 in Rain Light Rain
12:50 PM 46.4 °F 40.7 °F - N/A% 29.84 in 10.0 mi NNW 12.7 mph 17.3 mph 0.02 in Rain Light Rain
1:10 PM 46.4 °F 40.1 °F - N/A% 29.84 in 5.0 mi North 15.0 mph - N/A Rain Light Rain
1:30 PM 46.4 °F 40.1 °F - N/A% 29.84 in 7.0 mi North 15.0 mph - 0.01 in Rain Light Rain
1:50 PM 46.4 °F 41.1 °F - N/A% 29.85 in 9.0 mi North 11.5 mph - 0.02 in Rain Light Rain
2:10 PM 46.4 °F 40.7 °F - N/A% 29.85 in 10.0 mi North 12.7 mph - N/A   Scattered Clouds
2:30 PM 46.4 °F 41.1 °F - N/A% 29.85 in 10.0 mi North 11.5 mph - N/A   Scattered Clouds
2:50 PM 46.4 °F 40.7 °F - N/A% 29.86 in 10.0 mi North 12.7 mph 18.4 mph N/A   Mostly Cloudy
3:10 PM 46.4 °F 40.4 °F - N/A% 29.86 in 10.0 mi North 13.8 mph - N/A   Overcast
3:30 PM 46.4 °F 41.1 °F - N/A% 29.87 in 9.0 mi North 11.5 mph - N/A Rain Light Rain
3:50 PM 46.4 °F 41.5 °F - N/A% 29.87 in 7.0 mi North 10.4 mph - 0.01 in Rain Light Rain
4:10 PM 46.4 °F 41.5 °F - N/A% 29.87 in 9.0 mi North 10.4 mph - 0.01 in Rain Light Rain
4:30 PM 46.4 °F 41.1 °F - N/A% 29.88 in 10.0 mi North 11.5 mph - 0.01 in Rain Light Rain
4:50 PM 46.4 °F 41.5 °F - N/A% 29.89 in 10.0 mi North 10.4 mph - 0.01 in Rain Light Rain
5:10 PM 46.4 °F 41.9 °F - N/A% 29.89 in 10.0 mi North 9.2 mph - N/A Rain Light Rain
5:30 PM 46.4 °F 41.9 °F - N/A% 29.89 in 10.0 mi North 9.2 mph - N/A   Partly Cloudy
5:45 PM 46.4 °F 41.9 °F - N/A% 29.90 in 10.0 mi North 9.2 mph - N/A   Mostly Cloudy
6:30 PM 46.4 °F 42.9 °F - N/A% 29.90 in 10.0 mi North 6.9 mph - N/A   Overcast
6:50 PM 46.4 °F 42.4 °F - N/A% 29.90 in 10.0 mi North 8.1 mph - N/A   Overcast
7:10 PM 46.4 °F 41.5 °F - N/A% 29.89 in 10.0 mi North 10.4 mph 17.3 mph N/A   Overcast
7:30 PM 46.4 °F 41.5 °F - N/A% 29.90 in 10.0 mi North 10.4 mph - N/A   Overcast
7:50 PM 46.4 °F 41.5 °F - N/A% 29.90 in 10.0 mi North 10.4 mph - N/A   Mostly Cloudy
8:10 PM 46.4 °F 40.4 °F - N/A% 29.90 in 10.0 mi North 13.8 mph 20.7 mph N/A   Mostly Cloudy
8:30 PM 46.4 °F 40.7 °F - N/A% 29.91 in 10.0 mi North 12.7 mph 18.4 mph N/A   Mostly Cloudy
8:50 PM 46.4 °F 39.8 °F - N/A% 29.91 in 10.0 mi North 16.1 mph - N/A   Mostly Cloudy
9:10 PM 46.4 °F 40.1 °F - N/A% 29.91 in 10.0 mi North 15.0 mph - N/A   Scattered Clouds
9:30 PM 46.4 °F 39.8 °F - N/A% 29.91 in 10.0 mi North 16.1 mph 19.6 mph N/A   Scattered Clouds
9:50 PM 46.4 °F 40.1 °F - N/A% 29.91 in 10.0 mi North 15.0 mph 19.6 mph N/A   Scattered Clouds
10:10 PM 46.4 °F 39.8 °F - N/A% 29.91 in 10.0 mi North 16.1 mph - N/A   Partly Cloudy
10:30 PM 46.4 °F 40.4 °F - N/A% 29.92 in 10.0 mi North 13.8 mph - N/A   Clear
10:50 PM 46.4 °F 40.1 °F - N/A% 29.92 in 10.0 mi North 15.0 mph 19.6 mph N/A   Mostly Cloudy
11:10 PM 46.4 °F 40.4 °F - N/A% 29.92 in 10.0 mi North 13.8 mph 18.4 mph N/A   Mostly Cloudy
11:30 PM 46.4 °F 40.7 °F - N/A% 29.93 in 10.0 mi North 12.7 mph - N/A   Overcast
11:50 PM 46.4 °F 41.5 °F - N/A% 29.93 in 10.0 mi NNE 10.4 mph 16.1 mph N/A   Mostly Cloudy